Starlink 34975

operational
NORAD ID: 65224 Int'l Des: 2025-176 Owner: SPXS Country: US Constellation: starlink
LEOCIRCULAR

关于 Starlink 34975

正在加载描述...

实时位置

正在加载3D地球...

即将过境

高度历史

Altitude vs Time

uPlot chart will show altitude changes over time

两行轨道根数

1 65224U 25176AC 25340.85549697 .00040962 00000-0 13846-2 0 9992
2 65224 53.1578 224.1777 0001430 117.2135 242.9012 15.30268698 18904
Epoch: Dec 6, 2025 • Age: 10 hours

当前状态

高度 490.5 km
速度 7.62 km/s
星下点 -44.71°S, 91.41°W
发射日期 Aug 14, 2025
运行时间 0.3 years
类型 internet

技术详情

分类 Payload
质量 575.00 kg
干质量 530.00 kg
总质量 575.00 kg
长度 0.30 m
直径 4.10 m
跨度 29.00 m
形状 Box + pan
制造商 SPXS
平台类型 Starlink V2MO
阶段状态 In Orbit
所有者/国家 SPXS/US

大型星座

Loading constellations...